Hurricane Symbol View the latest observations near Atlantic Tropical Storm Philippe.

Station 46089 (LLNR 689) - TILLAMOOK, OR - 85 NM WNW of Tillamook, OR Image indicating link to RSS feed of recent meteorological observations for station 46089


Conditions at 46089 as of
(4:40 am PDT)
1140 GMT on 09/28/2023:
     

Click on the graph icon in the table below to see a time series plot of the last five days of that observation.

5-day plot - Wind Direction Wind Direction (WDIR):WNW ( 290 deg true )
5-day plot - Wind Speed Wind Speed (WSPD): 9.7 kts
5-day plot - Wind Gust Wind Gust (GST): 11.7 kts
5-day plot - Atmospheric Pressure Atmospheric Pressure (PRES):30.14 in
5-day plot - Air Temperature Air Temperature (ATMP): 60.1 °F
5-day plot - Water Temperature Water Temperature (WTMP): 62.2 °F
5-day plot - Wind Speed at 10 Meters Wind Speed at 10 meters (WSPD10M): 9.7 kts
5-day plot - Wind Speed at 20 Meters Wind Speed at 20 meters (WSPD20M): 9.7 kts
5-day plot -  Wind Speed, Wind Gust and Atmospheric Pressure Combined plot of Wind Speed, Gust, and Air Pressure
Supplemental Measurements
Highest 1-minute Wind Speed
Time (PDT)5-day plot - 1-Minute Wind Speed WSPD 5-day plot - 1-Minute Wind Direction WDIR
4:34 am 9.7 kts-
Previous observations
TIME
(PDT)
5-day plot - Wind Direction
WDIR
 
5-day plot - Wind Speed
WSPD
kts
5-day plot - Wind Gust
GST
kts
5-day plot - Wave Height
WVHT
ft
5-day plot - Dominant Wave Period
DPD
sec
5-day plot - Average Wave Period
APD
sec
5-day plot - Mean Wave Direction
MWD
 
5-day plot - Atmospheric Pressure
PRES
in
5-day plot - Pressure Tendency
PTDY
in
5-day plot - Air Temperature
ATMP
°F
5-day plot - Water Temperature
WTMP
°F
5-day plot - Dew Point
DEWP
°F
5-day plot - Salinity
SAL
psu
5-day plot - Visibility
VIS
nmi
5-day plot - Tide (above MLLW)
TIDE
ft
2023-09-28 04:30 amWNW 9.7 13.6----30.15- 60.1 62.2----
2023-09-28 04:20 amWNW 9.7 13.6 8.5 117.5WNW30.15- 60.1 62.2----
2023-09-28 04:10 amWNW 11.7 15.5 8.5-7.5WNW30.15- 59.9 62.2----
2023-09-28 04:00 amWNW 11.7 15.5----30.15+0.00 60.1 62.2----
2023-09-28 03:50 amWNW 11.7 15.5 9.2 117.7 NW30.15- 60.1 62.2----
2023-09-28 03:40 amWNW 13.6 17.5 9.2-7.7 NW30.15- 60.1 62.2----
2023-09-28 03:30 amWNW 13.6 17.5----30.15- 60.1 62.2----
2023-09-28 03:20 amWNW 13.6 17.5 8.5 117.5WNW30.15- 60.3 62.2----
2023-09-28 03:10 amWNW 13.6 17.5 8.5-7.5WNW30.15- 60.3 62.2----
2023-09-28 03:00 amWNW 13.6 17.5----30.15+0.00 60.3 62.2----
2023-09-28 02:50 amWNW 13.6 19.4 8.2 117.3WNW30.15- 60.3-----
2023-09-28 02:40 amWNW 13.6 19.4 8.2-7.3WNW30.15- 60.3 62.2----
2023-09-28 02:30 amWNW 13.6 17.5----30.15- 60.3 62.2----
2023-09-28 02:20 amWNW 13.6 17.5 8.2 117.2WNW30.15- 60.3 62.2----
2023-09-28 02:10 amWNW 15.5 17.5 8.2-7.2WNW30.15- 60.4 62.2----
2023-09-28 02:00 amWNW 13.6 19.4----30.15+0.00 60.4 62.2----
2023-09-28 01:50 amWNW 15.5 17.5 8.5 117.5WNW30.15- 60.4 62.2----
2023-09-28 01:40 amWNW 15.5 19.4 8.5-7.5WNW30.15- 60.3 62.2----
2023-09-28 01:30 amWNW 13.6 17.5----30.15- 60.3 62.2----
2023-09-28 01:20 amWNW 11.7 17.5 7.9 117.3WNW30.14- 59.9 62.2----
2023-09-28 01:10 amWNW 11.7 15.5 7.9-7.3WNW30.15- 59.5 62.2----
2023-09-28 01:00 amWNW 11.7 15.5----30.14+0.00 59.4 62.2----
2023-09-28 12:50 amWNW 13.6 15.5 8.5 107.5WNW30.15- 59.2 62.2----
2023-09-28 12:40 amWNW 15.5 19.4 8.5-7.5WNW30.14- 59.2 62.2----
2023-09-28 12:30 amWNW 15.5 19.4----30.14- 59.4 62.2----
2023-09-28 12:20 amWNW 15.5 19.4 8.2 117.3WNW30.14- 59.4 62.2----
2023-09-28 12:10 amWNW 13.6 15.5 8.2-7.3WNW30.14- 59.2 62.2----
2023-09-28 12:00 amWNW 13.6 17.5----30.14+0.00 59.2 62.2----
2023-09-27 11:50 pm W 13.6 17.5 8.5 117.3WNW30.14- 59.2 62.2----
2023-09-27 11:40 pm W 13.6 17.5 8.5-7.3WNW30.14- 59.0 62.2----
2023-09-27 11:30 pm W 11.7 15.5----30.14- 59.2 62.4----
2023-09-27 11:20 pm W 11.7 15.5 8.5 117.1WNW30.14- 59.2 62.4----
2023-09-27 11:10 pm W 11.7 17.5 8.5-7.1WNW30.14- 58.5 62.4----
2023-09-27 11:00 pm W 13.6 17.5----30.14+0.00 58.5 62.4----
2023-09-27 10:50 pm W 15.5 19.4 9.2 117.7WNW30.15- 59.9 62.4----
2023-09-27 10:40 pm W 13.6 17.5----30.15- 60.3 62.4----
2023-09-27 10:30 pm W 13.6 17.5----30.15- 60.1 62.4----
2023-09-27 10:20 pm W 11.7 15.5 8.9 117.2WNW30.15- 59.7-----
2023-09-27 10:10 pm W 11.7 15.5 8.9-7.2WNW30.15- 59.9 62.4----
2023-09-27 10:00 pm W 11.7 13.6----30.15+0.01 59.4 62.4----
2023-09-27 09:50 pm W 9.7 11.7 8.5 117.3WNW30.15- 59.2 62.4----
2023-09-27 09:40 pm W 9.7 13.6 8.5-7.3WNW30.15- 58.8 62.4----
2023-09-27 09:30 pm W 9.7 13.6----30.15- 57.7 62.4----
2023-09-27 09:20 pm W 13.6 17.5 8.9 117.2WNW30.15- 57.9 62.2----
2023-09-27 09:10 pm W 13.6 19.4 8.9-7.2WNW30.15- 60.1 62.2----
2023-09-27 09:00 pm W 7.8 11.7----30.15+0.01 59.9 62.2----
2023-09-27 08:50 pm W 9.7 13.6 9.5 117.3WNW30.15- 59.4 62.2----
2023-09-27 08:40 pm W 13.6 17.5 9.5-7.3WNW30.15- 60.4 62.2----
2023-09-27 08:30 pm W 11.7 15.5----30.14- 61.5 62.2----
2023-09-27 08:20 pm W 9.7 13.6 10.2 117.4WNW30.14- 61.3 62.2----
2023-09-27 08:10 pm W 11.7 15.5 10.2-7.4WNW30.14- 61.2 62.2----
2023-09-27 08:00 pm W 9.7 13.6----30.14+0.01 61.2 62.2----
2023-09-27 07:50 pm W 7.8 11.7 9.5 116.9WNW30.14- 60.8-----
2023-09-27 07:40 pm W 9.7 11.7 9.5-6.9WNW30.14- 61.0 62.2----
2023-09-27 07:30 pm W 9.7 13.6----30.14- 60.6 62.2----
2023-09-27 07:20 pm W 9.7 15.5 10.2 117.3 W30.14- 60.4 62.2----
2023-09-27 07:10 pmWNW 7.8 11.7 10.2-7.3 W30.14- 61.0 62.2----
2023-09-27 07:00 pmWNW 7.8 11.7----30.14+0.01 60.8 62.2----
2023-09-27 06:50 pmWNW 9.7 13.6 10.8 117.1 W30.14- 60.8 62.1----
2023-09-27 06:40 pmWNW 9.7 13.6 10.8-7.1 W30.14- 61.2 62.1----
2023-09-27 06:30 pm W 11.7 15.5----30.14- 61.0 62.1----
2023-09-27 06:20 pm W 9.7 13.6 10.8 116.9 W30.14- 60.6 62.1----
2023-09-27 06:10 pm W 7.8 9.7 10.8-6.9 W30.14- 60.4 62.1----
2023-09-27 06:00 pm W 9.7 15.5----30.14+0.03 61.0 62.1----
2023-09-27 05:50 pmWNW 9.7 15.5 11.2 87.2 W30.13- 61.3 62.1----
2023-09-27 05:40 pmWNW 9.7 13.6----30.13- 61.2 62.2----
2023-09-27 05:30 pm W 9.7 13.6----30.13- 61.2 62.2----
2023-09-27 05:20 pm W 9.7 15.5 11.5 97.3 W30.13- 61.3 62.2----
2023-09-27 05:10 pm W 9.7 13.6 11.5-7.3 W30.13- 61.0 62.2----
2023-09-27 05:00 pm W 9.7 13.6----30.13+0.04 61.0 62.2----
2023-09-27 04:50 pm W 9.7 13.6 12.1 97.4 W30.13- 60.8-----
2023-09-27 04:40 pm W 9.7 15.5----30.13- 60.8 62.2----
2023-09-27 04:10 pm W 13.6 17.5 12.1-7.4 W30.12- 60.8 62.2----
2023-09-27 04:00 pm W 11.7 17.5----30.12+0.04 60.4 62.2----
2023-09-27 03:50 pmWNW 13.6 17.5 12.1 117.5 W30.12- 60.4 62.2----
2023-09-27 03:40 pm W 11.7 17.5 12.1-7.5 W30.12- 61.2 62.2----
2023-09-27 03:30 pm W 11.7 15.5----30.11- 61.3 62.2----
2023-09-27 03:20 pm W 11.7 15.5 12.8 117.5 W30.11- 61.2 62.2----
2023-09-27 03:10 pm W 11.7 17.5 12.8-7.5 W30.11- 61.2 62.2----
2023-09-27 03:00 pm W 11.7 15.5----30.11+0.05 60.8 62.2----
2023-09-27 02:50 pm W 11.7 17.5 12.8 127.7WNW30.11- 61.2 62.2----
2023-09-27 02:40 pm W 11.7 17.5 12.8-7.7WNW30.11- 61.2 62.2----
2023-09-27 02:30 pm W 7.8 13.6----30.11- 61.0 62.2----
2023-09-27 02:20 pmWNW 7.8 11.7 14.1 117.9 W30.10- 60.8 62.2----
2023-09-27 02:10 pmWNW 9.7 13.6 14.1-7.9 W30.10- 60.4 62.2----
2023-09-27 02:00 pmWNW 9.7 13.6----30.10+0.05 60.6 62.2----
2023-09-27 01:50 pm W 11.7 17.5 12.8 117.7 W30.09- 60.4 62.4----
2023-09-27 01:40 pm W 13.6 17.5 12.8-7.7 W30.09- 60.8 62.2----
2023-09-27 01:30 pm W 11.7 17.5----30.09- 61.2 62.4----
2023-09-27 01:20 pm W 13.6 17.5 12.8 107.7 W30.09- 61.2 62.4----
2023-09-27 01:10 pm W 13.6 19.4 12.8-7.7 W30.09- 61.2 62.4----
2023-09-27 01:00 pm W 11.7 17.5----30.09+0.06 61.3 62.4----
2023-09-27 12:50 pmWNW 11.7 17.5 12.8 127.8WNW30.08- 61.0 62.4----
2023-09-27 12:40 pmWNW 13.6 19.4 12.8-7.8WNW30.08- 60.4 62.4----
2023-09-27 12:30 pm W 9.7 13.6----30.07- 60.4 62.4----
2023-09-27 12:20 pmWNW 11.7 15.5 13.5 117.9WNW30.07- 60.3 62.4----
2023-09-27 12:10 pmWNW 9.7 17.5 13.5-7.9WNW30.07- 60.1 62.2----
2023-09-27 12:00 pmWNW 11.7 15.5----30.07+0.07 59.5 62.2----
2023-09-27 11:50 amWNW 9.7 15.5 14.1-8.1WSW30.06-- 62.2----
2023-09-27 11:40 amWNW 11.7 15.5 14.1-8.1WSW30.06- 59.0 62.2----
2023-09-27 11:30 am W 11.7 17.5----30.06- 58.8 62.2----
2023-09-27 11:20 am W 15.5 21.4 12.8 118.0WNW30.06- 58.5 62.2----
2023-09-27 11:10 am W 17.5 25.3 12.8-8.0WNW30.05- 59.7 62.2----
2023-09-27 11:00 am W 13.6 17.5----30.05+0.08 61.0 62.2----
2023-09-27 10:50 am W 13.6 19.4 12.8 107.8 W30.04- 60.6 62.2----
2023-09-27 10:40 am W 13.6 17.5----30.04- 60.4 62.2----
2023-09-27 10:30 am W 13.6 17.5----30.03- 60.8 62.2----
2023-09-27 10:20 amWNW 15.5 19.4 12.5 117.8WNW30.03- 60.8 62.2----
2023-09-27 10:10 amWNW 15.5 21.4 12.5-7.8WNW30.03- 60.8 62.2----
2023-09-27 10:00 amWNW 15.5 19.4----30.02+0.09 60.8 62.2----
2023-09-27 09:50 amWNW 15.5 19.4 12.1 97.6 SW30.02- 60.8 62.2----
2023-09-27 09:40 amWNW 15.5 21.4----30.01- 60.8-----
2023-09-27 09:30 amWNW 17.5 21.4----30.01- 60.8 62.2----
2023-09-27 09:20 amWNW 17.5 21.4 13.5 108.1 W30.00- 60.8 62.2----
2023-09-27 09:10 amWNW 17.5 23.3 13.5-8.1 W30.00- 60.8 62.2----
2023-09-27 09:00 amWNW 17.5 23.3----29.99+0.10 61.0 62.2----
2023-09-27 08:50 amWNW 17.5 21.4 13.5 137.7WNW29.99- 60.8 62.2----
2023-09-27 08:40 amWNW 15.5 21.4 13.5-7.7WNW29.99- 60.3 62.2----
2023-09-27 08:30 am W 17.5 23.3----29.98- 60.4 62.2----
2023-09-27 08:20 am W 17.5 25.3 13.8 117.8 W29.98- 59.9 62.2----
2023-09-27 08:10 am W 17.5 23.3 13.8-7.8 W29.97- 59.9 62.2----
2023-09-27 08:00 am W 19.4 27.2----29.96+0.13 59.9 62.2----
2023-09-27 07:50 am W 17.5 23.3 13.8 127.6WNW29.96- 60.3 62.4----
2023-09-27 07:40 am W 17.5 23.3 13.8-7.6WNW29.96- 61.0 62.2----
2023-09-27 07:30 am W 19.4 27.2----29.95- 60.8 62.4----
2023-09-27 07:20 am W 21.4 25.3 15.1 137.8WNW29.94- 60.8 62.4----
2023-09-27 07:10 am W 21.4 27.2 15.1-7.8WNW29.94- 60.8 62.2----
2023-09-27 07:00 am W 23.3 29.1----29.93+0.14 60.8 62.2----
2023-09-27 06:50 am W 23.3 29.1 14.8 127.6WNW29.93- 60.8 62.2----
2023-09-27 06:40 am W 23.3 29.1 14.8-7.6WNW29.92- 60.8 62.2----
2023-09-27 06:30 am W 21.4 27.2----29.92- 60.8 62.2----
2023-09-27 06:20 am W 25.3 33.0 14.1 127.3WNW29.91- 60.8 62.2----
2023-09-27 06:10 am W 25.3 31.1 14.1-7.3WNW29.90- 60.8 62.2----
2023-09-27 06:00 am W 25.3 33.0----29.90+0.18 60.6 62.2----
2023-09-27 05:50 am W 25.3 35.0 16.1 127.7WNW29.89- 60.6 62.2----
2023-09-27 05:40 am W 25.3 31.1 16.1-7.7WNW29.88- 60.8 62.2----
2023-09-27 05:30 am W 27.2 35.0----29.88- 60.6 62.2----
2023-09-27 05:20 am W 27.2 36.9 15.7 137.5WNW29.86- 60.6 62.2----
2023-09-27 05:10 am W 29.1 35.0 15.7-7.5WNW29.86- 60.6 62.2----
2023-09-27 05:00 am W 27.2 35.0----29.85+0.17 60.6 62.2----
2023-09-27 04:50 am W 27.2 35.0 16.4 127.5 W29.84- 60.4 62.2----

Detailed Wave Summary
for 46089 as of (4:10 am PDT)
1110 GMT on 09/28/2023:

These wave data are displayed in rounded times.

     

Click on the graph icon in the table below to see a time series plot of the last five days of that observation.

5-day plot - Significant Wave Height Significant Wave Height (WVHT): 8.5 ft
5-day plot - Swell Height Swell Height (SwH): 8.2 ft
5-day plot - Swell Period Swell Period (SwP): 10.8 sec
5-day plot - Swell Direction Swell Direction (SwD):WNW
5-day plot - Wind Wave Height Wind Wave Height (WWH): 3.0 ft
5-day plot - Wind Wave Period Wind Wave Period (WWP): 4.8 sec
5-day plot - Wind Wave Direction Wind Wave Direction (WWD): W
5-day plot - Wave Steepness Wave Steepness (STEEPNESS): AVERAGE
5-day plot - Average Wave Period Average Wave Period (APD): 7.5 sec
Previous observations
TIME
(PDT)
5-day plot - Wave Height
WVHT
ft
5-day plot - Swell Height
SwH
ft
5-day plot - Swell Period
SwP
sec
5-day plot - Swell Direction
SwD
 
5-day plot - Wind Wave Height
WWH
ft
5-day plot - Wind Wave Period
WWP
sec
5-day plot - Wind Wave Direction
WWD
 
5-day plot - Wave Steepness
STEEPNESS
 
5-day plot - Average Wave Period
APD
sec
2023-09-28 03:40 am 9.2 8.2 10.8 NW 3.6 6.2 WSW AVERAGE 7.7
2023-09-28 03:10 am 8.5 7.9 10.8WNW 3.6 5.6 W AVERAGE 7.5
2023-09-28 02:40 am 8.2 6.9 10.8WNW 4.3 6.7 W SWELL 7.3
2023-09-28 02:10 am 8.2 6.9 10.8WNW 4.3 5.3 W SWELL 7.2
2023-09-28 01:40 am 8.5 7.2 10.8WNW 3.9 5.3 W SWELL 7.5
2023-09-28 01:10 am 7.9 7.5 10.8WNW 2.6 5.0 W SWELL 7.3
2023-09-28 12:40 am 8.5 7.5 10.0WNW 3.3 5.9 WSW AVERAGE 7.5
2023-09-28 12:10 am 8.2 7.5 11.4WNW 3.3 5.6 W SWELL 7.3
2023-09-27 11:40 pm 8.5 7.9 11.4WNW 3.6 5.6 W SWELL 7.3
2023-09-27 11:10 pm 8.5 7.9 10.8WNW 3.6 5.0 WNW AVERAGE 7.1
2023-09-27 10:40 pm 9.2 8.2 10.8WNW 3.9 5.9 W AVERAGE 7.7
2023-09-27 10:10 pm 8.9 8.2 10.8WNW 3.3 5.3 W AVERAGE 7.2
2023-09-27 09:40 pm 8.5 8.5 11.4WNW 2.3 4.0 WNW SWELL 7.3
2023-09-27 09:10 pm 8.9 7.9 10.8WNW 4.3 5.0 W AVERAGE 7.2
2023-09-27 08:40 pm 9.5 8.9 10.8WNW 3.9 5.9 W AVERAGE 7.3
2023-09-27 08:10 pm 10.2 9.8 11.4WNW 3.3 4.8 WNW AVERAGE 7.4
2023-09-27 07:40 pm 9.5 9.2 11.4WNW 2.3 4.2 WNW SWELL 6.9
2023-09-27 07:10 pm 10.2 9.8 11.4 W 2.0 3.8 WSW AVERAGE 7.3
2023-09-27 06:40 pm 10.8 10.5 10.8 W 3.0 4.5 W AVERAGE 7.1
2023-09-27 06:10 pm 10.8 10.8 10.8 W 2.3 3.8 WSW AVERAGE 6.9
2023-09-27 05:40 pm 11.2 10.8 8.3 W 3.3 4.3 W STEEP 7.2
2023-09-27 05:10 pm 11.5 10.8 9.1 W 3.3 4.5 W STEEP 7.3
2023-09-27 04:40 pm 12.1 11.5 9.1 W 3.6 4.8 WSW STEEP 7.4
2023-09-27 04:10 pm 12.1 10.8 11.4 W 5.2 6.2 W AVERAGE 7.4
2023-09-27 03:40 pm 12.1 11.5 11.4 W 4.6 5.6 WSW AVERAGE 7.5
2023-09-27 03:10 pm 12.8 11.8 10.8 W 4.6 5.6 W AVERAGE 7.5
2023-09-27 02:40 pm 12.8 12.1 12.1WNW 3.9 5.6 W AVERAGE 7.7
2023-09-27 02:10 pm 14.1 13.8 11.4 W 3.0 4.3 WNW AVERAGE 7.9
2023-09-27 01:40 pm 12.8 12.1 10.8 W 3.9 5.0 WSW AVERAGE 7.7
2023-09-27 01:10 pm 12.8 11.5 10.0 W 5.6 4.8 WSW AVERAGE 7.7
2023-09-27 12:40 pm 12.8 12.1 12.1WNW 4.6 5.6 WNW AVERAGE 7.8
2023-09-27 12:10 pm 13.5 12.8 11.4WNW 3.3 4.8 WNW AVERAGE 7.9
2023-09-27 11:40 am 14.1 13.5 9.1WSW 4.3 5.6 W STEEP 8.1
2023-09-27 11:10 am 12.8 10.2 11.4WNW 7.5 5.3 SW AVERAGE 8.0
2023-09-27 10:40 am 12.8 11.8 10.0 W 5.2 6.2 WSW AVERAGE 7.8
2023-09-27 10:10 am 12.5 10.5 11.4WNW 6.6 7.1 W AVERAGE 7.8
2023-09-27 09:40 am 12.1 10.2 9.1 SW 6.9 7.1 WNW STEEP 7.6
2023-09-27 09:10 am 13.5 11.2 10.0 W 7.5 8.3 WSW STEEP 8.1
2023-09-27 08:40 am 13.5 11.2 12.9WNW 7.2 5.9 WNW SWELL 7.7
2023-09-27 08:10 am 13.8 11.2 10.8 W 8.5 8.3 SW AVERAGE 7.8
2023-09-27 07:40 am 13.8 9.2 12.1WNW 10.2 9.1 WSW AVERAGE 7.6
2023-09-27 07:10 am 15.1 12.1 12.9WNW 8.9 6.7 W AVERAGE 7.8
2023-09-27 06:40 am 14.8 11.5 12.1WNW 9.2 8.3 WSW AVERAGE 7.6
2023-09-27 06:10 am 14.1 11.2 12.1WNW 9.2 7.7 WNW AVERAGE 7.3
2023-09-27 05:40 am 16.1 12.8 12.1WNW 9.5 7.7 W AVERAGE 7.7
2023-09-27 05:10 am 15.7 10.5 12.9WNW 11.8 6.7 WNW AVERAGE 7.5

Plot of wave energy versus frequency (and period)